Time,TemperatureF,DewpointF,PressureIn,WindDirection,WindDirectionDegrees,WindSpeedMPH,WindSpeedGustMPH,Humidity,HourlyPrecipIn,Conditions,Clouds,dailyrainin,SoftwareType,DateUTC
2013-07-21 00:05:00,74.9,73.0,30.06,NNE,14,0.0,1.0,95,0.00,,,0.00,weatherlink.com 1.10,2013-07-21 04:05:00,
2013-07-21 00:20:00,74.8,74.0,30.05,North,356,0.0,1.0,96,0.00,,,0.00,weatherlink.com 1.10,2013-07-21 04:20:00,
2013-07-21 00:35:00,74.5,73.0,30.05,North,356,0.0,1.0,96,0.00,,,0.00,weatherlink.com 1.10,2013-07-21 04:35:00,
2013-07-21 00:50:00,74.2,73.0,30.04,North,356,0.0,0.0,97,0.00,,,0.00,weatherlink.com 1.10,2013-07-21 04:50:00,
2013-07-21 01:05:00,74.0,73.0,30.04,North,356,0.0,0.0,97,0.00,,,0.00,weatherlink.com 1.10,2013-07-21 05:05:00,
2013-07-21 01:20:00,73.9,73.0,30.04,North,356,0.0,1.0,97,0.00,,,0.00,weatherlink.com 1.10,2013-07-21 05:20:00,
2013-07-21 01:35:00,73.9,73.0,30.04,North,356,0.0,0.0,98,0.00,,,0.00,weatherlink.com 1.10,2013-07-21 05:35:00,
2013-07-21 01:50:00,73.7,73.0,30.03,North,356,0.0,0.0,98,0.00,,,0.00,weatherlink.com 1.10,2013-07-21 05:50:00,
2013-07-21 02:05:00,73.5,73.0,30.03,North,356,0.0,0.0,98,0.00,,,0.00,weatherlink.com 1.10,2013-07-21 06:05:00,
2013-07-21 02:20:00,73.5,73.0,30.03,North,356,0.0,0.0,98,0.00,,,0.00,weatherlink.com 1.10,2013-07-21 06:20:00,
2013-07-21 02:35:00,73.5,73.0,30.03,North,356,0.0,0.0,98,0.00,,,0.00,weatherlink.com 1.10,2013-07-21 06:35:00,
2013-07-21 02:50:00,73.4,73.0,30.02,North,356,0.0,0.0,98,0.00,,,0.00,weatherlink.com 1.10,2013-07-21 06:50:00,
2013-07-21 03:05:00,73.4,73.0,30.02,ENE,58,0.0,0.0,98,0.00,,,0.00,weatherlink.com 1.10,2013-07-21 07:05:00,
2013-07-21 03:20:00,73.3,73.0,30.02,ENE,58,0.0,0.0,98,0.00,,,0.00,weatherlink.com 1.10,2013-07-21 07:20:00,
2013-07-21 03:36:00,73.1,73.0,30.02,ENE,58,0.0,0.0,98,0.00,,,0.00,weatherlink.com 1.10,2013-07-21 07:36:00,
2013-07-21 03:51:00,73.1,73.0,30.02,ENE,58,0.0,0.0,98,0.00,,,0.00,weatherlink.com 1.10,2013-07-21 07:51:00,
2013-07-21 04:06:00,73.0,72.0,30.02,ENE,58,0.0,0.0,98,0.00,,,0.00,weatherlink.com 1.10,2013-07-21 08:06:00,
2013-07-21 04:21:00,73.1,73.0,30.01,WNW,283,0.0,1.0,99,0.00,,,0.00,weatherlink.com 1.10,2013-07-21 08:21:00,
2013-07-21 04:36:00,73.1,73.0,30.01,West,269,0.0,2.0,98,0.00,,,0.00,weatherlink.com 1.10,2013-07-21 08:36:00,
2013-07-21 04:51:00,73.0,72.0,30.01,WNW,285,0.0,1.0,98,0.00,,,0.00,weatherlink.com 1.10,2013-07-21 08:51:00,
2013-07-21 05:06:00,72.9,72.0,30.01,West,269,0.0,0.0,98,0.00,,,0.00,weatherlink.com 1.10,2013-07-21 09:06:00,
2013-07-21 05:21:00,72.8,72.0,30.00,West,266,0.0,1.0,98,0.00,,,0.00,weatherlink.com 1.10,2013-07-21 09:21:00,
2013-07-21 05:36:00,72.6,72.0,30.01,West,265,0.0,0.0,98,0.00,,,0.00,weatherlink.com 1.10,2013-07-21 09:36:00,
2013-07-21 05:51:00,72.5,72.0,30.01,West,265,0.0,0.0,98,0.00,,,0.00,weatherlink.com 1.10,2013-07-21 09:51:00,
2013-07-21 06:06:00,72.7,72.0,30.02,NE,43,0.0,1.0,99,0.00,,,0.00,weatherlink.com 1.10,2013-07-21 10:06:00,
2013-07-21 06:21:00,72.9,73.0,30.01,WSW,244,0.0,0.0,99,0.00,,,0.00,weatherlink.com 1.10,2013-07-21 10:21:00,
2013-07-21 06:36:00,73.1,73.0,30.02,West,276,0.0,0.0,98,0.00,,,0.00,weatherlink.com 1.10,2013-07-21 10:36:00,
2013-07-21 06:51:00,73.3,73.0,30.02,West,276,0.0,0.0,98,0.00,,,0.00,weatherlink.com 1.10,2013-07-21 10:51:00,
2013-07-21 07:06:00,73.6,73.0,30.03,West,276,0.0,0.0,98,0.00,,,0.00,weatherlink.com 1.10,2013-07-21 11:06:00,
2013-07-21 07:21:00,73.8,73.0,30.03,NE,44,0.0,1.0,98,0.00,,,0.00,weatherlink.com 1.10,2013-07-21 11:21:00,
2013-07-21 07:36:00,73.8,73.0,30.03,NW,304,0.0,3.0,97,0.00,,,0.00,weatherlink.com 1.10,2013-07-21 11:36:00,
2013-07-21 07:51:00,74.1,73.0,30.04,ENE,75,0.0,1.0,97,0.00,,,0.00,weatherlink.com 1.10,2013-07-21 11:51:00,
2013-07-21 08:06:00,74.3,73.0,30.04,West,264,0.0,1.0,97,0.00,,,0.00,weatherlink.com 1.10,2013-07-21 12:06:00,
2013-07-21 08:21:00,74.7,74.0,30.04,NNE,15,0.0,2.0,96,0.00,,,0.00,weatherlink.com 1.10,2013-07-21 12:21:00,
2013-07-21 08:36:00,75.3,74.0,30.05,West,276,0.0,1.0,96,0.00,,,0.00,weatherlink.com 1.10,2013-07-21 12:36:00,
2013-07-21 08:51:00,76.1,75.0,30.05,SSE,153,0.0,2.0,95,0.00,,,0.00,weatherlink.com 1.10,2013-07-21 12:51:00,
2013-07-21 09:06:00,76.2,74.0,30.06,WNW,302,2.0,3.0,93,0.00,,,0.00,weatherlink.com 1.10,2013-07-21 13:06:00,
2013-07-21 09:21:00,76.1,74.0,30.06,WNW,283,0.0,3.0,93,0.00,,,0.00,weatherlink.com 1.10,2013-07-21 13:21:00,
2013-07-21 09:36:00,76.7,75.0,30.06,WSW,256,0.0,1.0,93,0.00,,,0.00,weatherlink.com 1.10,2013-07-21 13:36:00,
2013-07-21 09:51:00,77.1,75.0,30.06,West,280,0.0,2.0,92,0.00,,,0.00,weatherlink.com 1.10,2013-07-21 13:51:00,
2013-07-21 10:06:00,77.1,75.0,30.06,West,281,0.0,1.0,92,0.00,,,0.00,weatherlink.com 1.10,2013-07-21 14:06:00,
2013-07-21 10:21:00,77.5,75.0,30.06,WNW,282,0.0,1.0,92,0.00,,,0.00,weatherlink.com 1.10,2013-07-21 14:21:00,
2013-07-21 10:36:00,77.9,75.0,30.06,SSW,212,1.0,3.0,91,0.00,,,0.00,weatherlink.com 1.10,2013-07-21 14:36:00,
2013-07-21 10:51:00,78.0,76.0,30.06,West,269,0.0,3.0,92,0.00,,,0.00,weatherlink.com 1.10,2013-07-21 14:51:00,
2013-07-21 11:06:00,78.5,75.0,30.06,West,264,0.0,2.0,89,0.00,,,0.00,weatherlink.com 1.10,2013-07-21 15:06:00,
2013-07-21 11:21:00,78.6,76.0,30.07,WSW,255,0.0,3.0,90,0.00,,,0.00,weatherlink.com 1.10,2013-07-21 15:21:00,
2013-07-21 11:36:00,78.2,76.0,30.07,WSW,252,0.0,1.0,92,0.02,,,0.02,weatherlink.com 1.10,2013-07-21 15:36:00,
2013-07-21 11:51:00,77.0,76.0,30.07,WSW,252,0.0,1.0,95,0.06,,,0.06,weatherlink.com 1.10,2013-07-21 15:51:00,
2013-07-21 12:06:00,76.8,76.0,30.06,West,273,0.0,0.0,96,0.07,,,0.07,weatherlink.com 1.10,2013-07-21 16:06:00,
2013-07-21 12:21:00,77.2,76.0,30.06,West,274,0.0,1.0,96,0.08,,,0.08,weatherlink.com 1.10,2013-07-21 16:21:00,
2013-07-21 12:36:00,77.9,77.0,30.06,West,266,0.0,1.0,96,0.06,,,0.08,weatherlink.com 1.10,2013-07-21 16:36:00,
2013-07-21 12:51:00,78.3,77.0,30.05,West,269,0.0,1.0,97,0.02,,,0.08,weatherlink.com 1.10,2013-07-21 16:51:00,
2013-07-21 13:06:00,79.0,78.0,30.04,West,277,0.0,4.0,95,0.01,,,0.08,weatherlink.com 1.10,2013-07-21 17:06:00,
2013-07-21 13:21:00,81.1,79.0,30.03,West,262,0.0,3.0,92,0.00,,,0.08,weatherlink.com 1.10,2013-07-21 17:21:00,
2013-07-21 13:36:00,82.2,78.0,30.02,WNW,290,2.0,3.0,88,0.00,,,0.08,weatherlink.com 1.10,2013-07-21 17:36:00,
2013-07-21 13:51:00,83.6,79.0,30.03,WNW,296,0.0,3.0,85,0.00,,,0.08,weatherlink.com 1.10,2013-07-21 17:51:00,
2013-07-21 14:06:00,83.5,78.0,30.02,West,266,0.0,3.0,83,0.00,,,0.08,weatherlink.com 1.10,2013-07-21 18:06:00,
2013-07-21 14:21:00,85.2,78.0,30.02,SSW,193,0.0,1.0,80,0.00,,,0.08,weatherlink.com 1.10,2013-07-21 18:21:00,
2013-07-21 14:37:00,84.5,77.0,30.01,NW,304,1.0,5.0,78,0.00,,,0.08,weatherlink.com 1.10,2013-07-21 18:37:00,
2013-07-21 14:52:00,84.9,77.0,30.00,West,281,0.0,5.0,76,0.00,,,0.08,weatherlink.com 1.10,2013-07-21 18:52:00,
2013-07-21 15:07:00,86.8,80.0,30.00,ESE,121,0.0,1.0,79,0.00,,,0.08,weatherlink.com 1.10,2013-07-21 19:07:00,
2013-07-21 15:22:00,86.5,79.0,29.99,SE,146,0.0,2.0,77,0.00,,,0.08,weatherlink.com 1.10,2013-07-21 19:22:00,
2013-07-21 15:37:00,87.8,80.0,29.98,SW,234,0.0,2.0,77,0.00,,,0.08,weatherlink.com 1.10,2013-07-21 19:37:00,
2013-07-21 15:52:00,87.4,77.0,29.98,NNE,20,1.0,4.0,72,0.00,,,0.08,weatherlink.com 1.10,2013-07-21 19:52:00,
2013-07-21 16:07:00,87.1,78.0,29.97,West,259,1.0,2.0,75,0.00,,,0.08,weatherlink.com 1.10,2013-07-21 20:07:00,
2013-07-21 16:22:00,85.4,77.0,29.97,NNW,337,2.0,5.0,77,0.00,,,0.08,weatherlink.com 1.10,2013-07-21 20:22:00,
2013-07-21 16:37:00,82.5,76.0,29.97,ENE,61,0.0,6.0,80,0.00,,,0.08,weatherlink.com 1.10,2013-07-21 20:37:00,
2013-07-21 16:52:00,81.8,76.0,29.97,ENE,59,1.0,5.0,82,0.00,,,0.08,weatherlink.com 1.10,2013-07-21 20:52:00,
2013-07-21 17:07:00,81.5,77.0,29.97,WSW,251,0.0,2.0,85,0.00,,,0.08,weatherlink.com 1.10,2013-07-21 21:07:00,
2013-07-21 17:22:00,82.3,77.0,29.96,SSE,167,0.0,3.0,85,0.00,,,0.08,weatherlink.com 1.10,2013-07-21 21:22:00,
2013-07-21 17:37:00,83.4,78.0,29.96,WNW,294,1.0,2.0,84,0.00,,,0.08,weatherlink.com 1.10,2013-07-21 21:37:00,
2013-07-21 17:52:00,83.2,77.0,29.96,East,83,0.0,4.0,82,0.00,,,0.08,weatherlink.com 1.10,2013-07-21 21:52:00,
2013-07-21 18:07:00,82.5,77.0,29.96,ENE,65,1.0,4.0,84,0.00,,,0.08,weatherlink.com 1.10,2013-07-21 22:07:00,
2013-07-21 18:22:00,81.4,77.0,29.96,NNE,12,0.0,1.0,86,0.00,,,0.08,weatherlink.com 1.10,2013-07-21 22:22:00,
2013-07-21 18:37:00,80.8,77.0,29.96,NNE,27,0.0,0.0,88,0.00,,,0.08,weatherlink.com 1.10,2013-07-21 22:37:00,
2013-07-21 18:52:00,80.4,77.0,29.97,North,354,0.0,2.0,90,0.00,,,0.08,weatherlink.com 1.10,2013-07-21 22:52:00,
2013-07-21 19:07:00,80.1,77.0,29.97,ENE,58,0.0,1.0,89,0.00,,,0.08,weatherlink.com 1.10,2013-07-21 23:07:00,
2013-07-21 19:22:00,80.5,77.0,29.97,SW,221,0.0,1.0,88,0.00,,,0.08,weatherlink.com 1.10,2013-07-21 23:22:00,
2013-07-21 19:37:00,80.4,77.0,29.98,South,175,0.0,0.0,88,0.00,,,0.08,weatherlink.com 1.10,2013-07-21 23:37:00,
2013-07-21 19:52:00,80.0,77.0,29.98,South,175,0.0,0.0,89,0.00,,,0.08,weatherlink.com 1.10,2013-07-21 23:52:00,
2013-07-21 20:07:00,79.4,77.0,29.99,South,175,0.0,0.0,91,0.00,,,0.08,weatherlink.com 1.10,2013-07-22 00:07:00,
2013-07-21 20:22:00,78.8,76.0,30.00,West,278,0.0,5.0,90,0.00,,,0.08,weatherlink.com 1.10,2013-07-22 00:22:00,
2013-07-21 20:37:00,77.6,75.0,30.00,West,278,2.0,5.0,91,0.00,,,0.08,weatherlink.com 1.10,2013-07-22 00:37:00,
2013-07-21 20:52:00,76.2,74.0,29.98,WNW,297,0.0,4.0,94,0.03,,,0.11,weatherlink.com 1.10,2013-07-22 00:52:00,
2013-07-21 21:07:00,75.7,75.0,29.99,NNW,345,0.0,1.0,96,0.07,,,0.15,weatherlink.com 1.10,2013-07-22 01:07:00,
2013-07-21 21:22:00,75.5,75.0,29.99,West,278,0.0,1.0,97,0.07,,,0.15,weatherlink.com 1.10,2013-07-22 01:22:00,
2013-07-21 21:37:00,75.5,75.0,29.99,NNW,327,0.0,1.0,98,0.07,,,0.15,weatherlink.com 1.10,2013-07-22 01:37:00,
2013-07-21 21:52:00,75.5,75.0,29.99,NNW,328,0.0,1.0,98,0.04,,,0.15,weatherlink.com 1.10,2013-07-22 01:52:00,
2013-07-21 22:07:00,75.7,75.0,30.00,NNW,328,0.0,0.0,98,0.00,,,0.15,weatherlink.com 1.10,2013-07-22 02:07:00,
2013-07-21 22:22:00,75.6,75.0,30.00,NNW,328,0.0,0.0,98,0.00,,,0.15,weatherlink.com 1.10,2013-07-22 02:22:00,
2013-07-21 22:37:00,75.7,75.0,30.00,NNW,328,0.0,0.0,98,0.00,,,0.15,weatherlink.com 1.10,2013-07-22 02:37:00,
2013-07-21 22:52:00,75.6,75.0,30.00,NNW,328,0.0,0.0,98,0.00,,,0.15,weatherlink.com 1.10,2013-07-22 02:52:00,
2013-07-21 23:07:00,75.5,75.0,30.00,NNW,328,0.0,0.0,98,0.00,,,0.15,weatherlink.com 1.10,2013-07-22 03:07:00,
2013-07-21 23:22:00,75.5,75.0,30.00,NNW,328,0.0,0.0,98,0.00,,,0.15,weatherlink.com 1.10,2013-07-22 03:22:00,
2013-07-21 23:37:00,75.5,75.0,30.01,NNW,328,0.0,0.0,99,0.00,,,0.15,weatherlink.com 1.10,2013-07-22 03:37:00,
2013-07-21 23:52:00,75.4,75.0,30.01,NNW,328,0.0,0.0,99,0.00,,,0.15,weatherlink.com 1.10,2013-07-22 03:52:00,